Home > Weather > Paysandú > Past weeks

Flag for Uruguay Past Weather in Paysandú, Uruguay — Yesterday and Last 2 Weeks

Now
57 °F

Clear.


Feels Like: 55 °F
Forecast: 47 / 71 °F
Wind: 8 mph from Northwest

Location: Buenos Aires Airport

Current Time: Aug 24, 2016 at 3:58:31 AM

Latest Report: Aug 24, 2016 at 3:00 AM


Visibility: 10 mi

Pressure: 30.07 "Hg

Humidity: 72%

Dew Point: 48 °F

Location of PaysandúLocation

Past Weather in Paysandú — Graph

°F

Paysandú Temperature Yesterday

Maximum temperature yesterday: 66 °F (at 2:00 PM)
Minimum temperature yesterday: 54 °F (at 4:00 AM)
Average temperature yesterday: 60 °F

High & Low Weather Summary for the Past Weeks

 TemperatureHumidityPressure
High72 °F (Aug 13, 3:00 PM)94% (Aug 20, 6:00 AM)30.51 "Hg (Aug 20, 6:00 AM)
Low41 °F (Aug 21, 4:00 AM)21% (Aug 18, 3:00 PM)29.59 "Hg (Aug 16, 4:00 PM)
Average58 °F61%30.06 "Hg
* Reported Aug 9 2:00 AM — Aug 24 2:00 AM, Paysandú, Weather by CustomWeather, © 2016

Note: Actual official high and low records may vary slightly from our data, if they occured in-between our weather recording intervals... More about our weather records

Advertising

Paysandú Weather History for the Previous 24 Hours

Scroll right to see more
 ConditionsComfort  
Time TempWeatherWind HumidityBarometerVisibility
2:00 AM
Wed, Aug 24
59 °FClear.7 mph72%30.07 "Hg10 mi
1:00 AM59 °FClear.8 mph77%30.07 "Hg10 mi
12:00 AM59 °FClear.8 mph72%30.07 "Hg10 mi
11:00 PM
Tue, Aug 23
61 °FClear.7 mph68%30.09 "Hg10 mi
10:00 PM61 °FClear.7 mph68%30.09 "Hg10 mi
9:00 PM63 °FClear.5 mph73%30.09 "Hg10 mi
8:00 PM63 °FClear.3 mph59%30.09 "Hg10 mi
7:00 PM63 °FClear.6 mph56%30.07 "Hg10 mi
6:00 PM64 °FPassing clouds.5 mph60%30.07 "HgN/A
5:00 PM66 °FSunny.8 mph49%30.07 "Hg10 mi
4:00 PM66 °FSunny.10 mph56%30.07 "Hg10 mi
3:00 PM66 °FSunny.9 mph60%30.09 "Hg10 mi
2:00 PM66 °FSunny.7 mph60%30.12 "Hg10 mi
1:00 PM64 °FSunny.7 mph64%30.15 "Hg10 mi
12:00 PM63 °FSunny.7 mph59%30.15 "Hg10 mi
11:00 AM59 °FSunny.7 mph68%30.15 "Hg10 mi
10:00 AM57 °FSunny.5 mph72%30.15 "Hg10 mi
9:00 AM55 °FSunny.7 mph72%30.15 "Hg10 mi
8:00 AM54 °FSunny.6 mph77%30.15 "Hg10 mi
7:00 AM54 °FSunny.3 mph72%30.12 "Hg10 mi
6:00 AM54 °FClear.7 mph67%30.12 "Hg10 mi
5:00 AM54 °FClear.7 mph63%30.09 "Hg10 mi
4:00 AM54 °FClear.5 mph67%30.12 "Hg10 mi
3:00 AM57 °FClear.6 mph55%30.09 "Hg10 mi
Weather by CustomWeather, © 2016

See weather overviewHow to use our weather pages